This is the latest recevied weather packets stored in our database for station/object KK7ISX. If no packets are shown the sender has not sent any weather packets the latest 10 day(s).
| Time | Temp. | Humidity | Pressure | Rain* | Wind** | Luminosity | Snow |
|---|---|---|---|---|---|---|---|
| 1777774017 | 23.89° C | 32% | 1012.3 hPa | 0 mm | - | 25 W/m² | - |
| 1777773714 | 23.89° C | 32% | 1012.3 hPa | 0 mm | - | 28 W/m² | - |
| 1777773411 | 23.89° C | 32% | 1012.3 hPa | 0 mm | - | 33 W/m² | - |
| 1777773108 | 23.89° C | 30% | 1012.2 hPa | 0 mm | - | 41 W/m² | - |
| 1777772804 | 23.89° C | 30% | 1012.3 hPa | 0 mm | - | 47 W/m² | - |
| 1777772502 | 24.44° C | 30% | 1012.2 hPa | 0 mm | - | 50 W/m² | - |
| 1777772199 | 24.44° C | 29% | 1012.2 hPa | 0 mm | - | 54 W/m² | - |
| 1777771897 | 24.44° C | 29% | 1012.3 hPa | 0 mm | - | 57 W/m² | - |
| 1777771593 | 25° C | 28% | 1012.4 hPa | 0 mm | - | 62 W/m² | - |
| 1777771290 | 25° C | 28% | 1012.3 hPa | 0 mm | - | 70 W/m² | - |
| 1777770987 | 25° C | 28% | 1012.3 hPa | 0 mm | - | 76 W/m² | - |
| 1777770684 | 25.56° C | 25% | 1012.3 hPa | 0 mm | - | 82 W/m² | - |
| 1777770380 | 25.56° C | 22% | 1012.5 hPa | 0 mm | - | 89 W/m² | - |
| 1777770078 | 26.11° C | 22% | 1012.5 hPa | 0 mm | - | 95 W/m² | - |
| 1777769774 | 26.11° C | 21% | 1012.4 hPa | 0 mm | - | 104 W/m² | - |
| 1777769472 | 26.11° C | 23% | 1012.4 hPa | 0 mm | - | 117 W/m² | - |
| 1777769168 | 26.11° C | 22% | 1012.5 hPa | 0 mm | - | 129 W/m² | - |
| 1777768867 | 26.67° C | 23% | 1012.4 hPa | 0 mm | - | 142 W/m² | - |
| 1777768563 | 27.22° C | 21% | 1012.5 hPa | 0 mm | - | 162 W/m² | - |
| 1777768260 | 26.67° C | 20% | 1012.5 hPa | 0 mm | - | 219 W/m² | - |
| 1777767957 | 26.67° C | 21% | 1012.5 hPa | 0 mm | - | 157 W/m² | - |
| 1777767653 | 27.22° C | 21% | 1012.4 hPa | 0 mm | - | 178 W/m² | - |
| 1777767349 | 27.78° C | 22% | 1012.5 hPa | 0 mm | - | 198 W/m² | - |
| 1777767047 | 27.22° C | 22% | 1012.4 hPa | 0 mm | - | 269 W/m² | - |
| 1777766744 | 27.22° C | 20% | 1012.5 hPa | 0 mm | - | 306 W/m² | - |
* Rain latest hour (hover to see other rain measurements)
** Current wind speed in m/s (hover to see current wind gust speed)